View from above orbital plane
|
View from above satellite
|
Ground track
|
The orbit data is extracted from the following two-line orbital elements,
1 47U 60007C 21021.19159177 -.00000042 00000-0 15684-4 0 9995
2 47 66.6666 292.7653 0223314 145.5443 216.0375 14.42126693166526
Epoch (UTC): | 21 January 2021 04:35:53 |
Eccentricity: | 0.0223314 |
inclination: | 66.6666° |
perigee height: | 592 km |
apogee height: | 910 km |
right ascension of ascending node: | 292.7653° |
argument of perigee: | 145.5443° |
revolutions per day: | 14.42126693 |
mean anomaly at epoch: | 216.0375° |
orbit number at epoch: | 16652 |
The dashed part of the orbit path shows where the satellite is in the earth's shadow,
|
|